Flag for U.S.A. Weather past 2 weeks in Bristol, Tennessee, U.S.A.

Now
63 °F

More clouds than sun.


Feels Like: 63 °F
Forecast: 54 / 73 °F
Wind: No wind

Location: Abingdon-Southwest Abingdon

Current Time: Sep 17, 2014 at 10:08:56 AM

Latest Report: Sep 17, 2014 at 9:35 AM


Visibility: 10 mi

Pressure: 30.05 "Hg

Humidity: 83%

Dew point: 57 °F

Location of BristolLocation

Historic Weather in Bristol — Graph

°F

Bristol temperature yesterday

Maximum temperature yesterday: 74 °F (at 4:55 PM)
Minimum temperature yesterday: 61 °F (at 11:55 PM)
Average temperature yesterday: 67 °F

Past Weeks' High & Low Weather Summary

 TemperatureHumidityPressure
High87 °F (Sep 2, 3:35 PM)100% (Sep 3, 2:35 AM)30.29 "Hg (Sep 3, 2:35 AM)
Low57 °F (Sep 14, 1:55 AM)51% (Sep 2, 5:35 PM)30.02 "Hg (Sep 2, 5:35 PM)
Average71 °F85%30.15 "Hg
* Reported Sep 2 8:35 AM — Sep 17 8:55 AM, Bristol, Weather by CustomWeather, © 2014

Note: Actual official high and low records may vary slightly from our data, if they occured in-between our weather recording intervals... More about our weather records

Advertising

Bristol weather history for previous 24 hours

 ConditionsComfort  
Time TempWeatherWind HumidityBarometerVisibility
8:55 AM
Sep 17
60 °FBroken clouds.No wind90%30.05 "Hg10 mi
8:35 AM60 °FSunny.5 mph91%30.05 "Hg10 mi
7:55 AM58 °FClear.No wind94%30.04 "Hg10 mi
7:35 AM58 °FClear.No wind94%30.04 "Hg10 mi
7:15 AM58 °FClear.No wind93%30.03 "Hg10 mi
6:55 AM58 °FPassing clouds.3 mph94%30.03 "Hg10 mi
6:35 AM58 °FPassing clouds.No wind94%30.03 "Hg10 mi
6:15 AM59 °FPassing clouds.3 mph93%30.03 "Hg10 mi
5:55 AM60 °FPassing clouds.No wind92%30.03 "Hg10 mi
5:35 AM59 °FPassing clouds.3 mph92%30.03 "Hg10 mi
5:15 AM60 °FClear.6 mph93%30.03 "Hg10 mi
4:55 AM60 °FClear.6 mph92%30.04 "Hg10 mi
4:35 AM60 °FPassing clouds.3 mph90%30.04 "Hg10 mi
4:15 AM60 °FPassing clouds.6 mph90%30.04 "Hg10 mi
3:55 AM60 °FPassing clouds.5 mph89%30.04 "Hg10 mi
3:15 AM60 °FOvercast.5 mph92%30.05 "Hg10 mi
2:55 AM60 °FPartly cloudy.No wind92%30.06 "Hg10 mi
2:35 AM61 °FPassing clouds.No wind91%30.06 "Hg10 mi
2:15 AM62 °FPartly cloudy.No wind88%30.06 "Hg10 mi
1:55 AM62 °FOvercast.7 mph88%30.06 "Hg10 mi
1:35 AM62 °FOvercast.7 mph92%30.06 "Hg10 mi
1:15 AM63 °FOvercast.No wind87%30.07 "Hg10 mi
12:55 AM62 °FMostly cloudy.No wind91%30.07 "Hg10 mi
12:35 AM62 °FPartly cloudy.3 mph87%30.07 "Hg10 mi
12:15 AM61 °FPartly cloudy.7 mph95%30.07 "Hg10 mi
11:55 PM
Sep 16
61 °FPartly cloudy.No wind96%30.07 "Hg10 mi
11:15 PM62 °FMostly cloudy.No wind93%30.07 "Hg10 mi
10:55 PM61 °FPartly cloudy.No wind94%30.07 "Hg10 mi
10:35 PM62 °FPassing clouds.No wind90%30.07 "Hg10 mi
10:15 PM63 °FPassing clouds.No wind90%30.07 "Hg10 mi
9:55 PM62 °FPassing clouds.No wind94%30.07 "Hg10 mi
9:35 PM63 °FPassing clouds.No wind93%30.07 "Hg10 mi
9:15 PM63 °FClear.3 mph91%30.07 "Hg10 mi
8:55 PM65 °FClear.No wind84%30.06 "Hg10 mi
8:35 PM66 °FClear.No wind81%30.06 "Hg10 mi
8:15 PM67 °FScattered clouds.5 mph79%30.05 "Hg10 mi
7:55 PM66 °FScattered clouds.No wind89%30.04 "Hg10 mi
7:35 PM68 °FSunny.No wind82%30.04 "Hg10 mi
7:15 PM71 °FSunny.No wind73%30.04 "Hg10 mi
6:15 PM71 °FBroken clouds.5 mph73%30.05 "Hg10 mi
5:55 PM72 °FBroken clouds.No wind72%30.05 "Hg10 mi
5:15 PM73 °FScattered clouds.7 mph69%30.06 "Hg10 mi
4:55 PM74 °FScattered clouds.8 mph69%30.06 "Hg10 mi
4:35 PM73 °FBroken clouds.6 mph70%30.06 "Hg10 mi
4:15 PM72 °FPartly sunny.7 mph73%30.07 "Hg10 mi
3:55 PM72 °FBroken clouds.6 mph75%30.07 "Hg10 mi
3:35 PM72 °FBroken clouds.7 mph77%30.08 "Hg10 mi
3:15 PM70 °FLight rain. Cloudy.3 mph83%30.08 "Hg10 mi
2:55 PM70 °FLight rain. Cloudy.3 mph83%30.09 "Hg10 mi
2:15 PM72 °FOvercast.5 mph81%30.09 "Hg10 mi
1:55 PM72 °FMostly cloudy.9 mph80%30.09 "Hg10 mi
1:35 PM73 °FMostly cloudy.8 mph79%30.10 "Hg10 mi
1:15 PM72 °FMostly cloudy.10 mph81%30.10 "Hg10 mi
12:55 PM71 °FMostly cloudy.9 mph82%30.10 "Hg10 mi
12:15 PM70 °FMostly cloudy.8 mph84%30.11 "Hg10 mi
11:55 AM70 °FOvercast.9 mph85%30.11 "Hg10 mi
11:35 AM70 °FOvercast.6 mph87%30.12 "Hg7 mi
11:15 AM70 °FMostly cloudy.8 mph88%30.12 "Hg7 mi
10:55 AM69 °FMostly cloudy.6 mph91%30.13 "Hg7 mi
10:35 AM69 °FFog.5 mph93%30.13 "Hg5 mi
10:15 AM69 °FFog.5 mph94%30.14 "Hg5 mi
Weather by CustomWeather, © 2014

See weather overviewHow to use our weather pages